When you browse on this site, cookies collect data to enhance your experience and personalize the content and advertising you see.
Visit our Privacy Policy to learn more. By continuing to use the site, you agree to this use of cookies and data.

Meteo pe oră la Dziekanowice

Astăzi, 19 Septembrie, Sâmbătă

Timp Temperatura Precipitaţii Vânt Presiune Umiditate
00:00 +9°C° 0 mm 0 m/s 751 mmHg 65%
01:00 +8°C° 0 mm 0 m/s 751 mmHg 67%
02:00 +8°C° 0 mm 0 m/s 751 mmHg 68%
03:00 +8°C° 0 mm 0 m/s 750 mmHg 69%
04:00 +8°C° 0 mm 0 m/s 750 mmHg 70%
05:00 +8°C° 0 mm 0 m/s 750 mmHg 68%
06:00 +10°C° 0 mm 1 m/s 750 mmHg 65%
07:00 +11°C° 0 mm 1 m/s 750 mmHg 61%
08:00 +13°C° 0 mm 1 m/s 750 mmHg 56%
09:00 +15°C° 0 mm 2 m/s 750 mmHg 51%
10:00 +16°C° 0 mm 2 m/s 750 mmHg 46%
11:00 +17°C° 0 mm 2 m/s 749 mmHg 43%
12:00 +18°C° 0 mm 2 m/s 749 mmHg 40%
13:00 +19°C° 0 mm 3 m/s 749 mmHg 38%
14:00 +19°C° 0 mm 3 m/s 748 mmHg 40%
15:00 +19°C° 0 mm 3 m/s 748 mmHg 43%
16:00 +18°C° 0 mm 3 m/s 747 mmHg 46%
17:00 +17°C° 0 mm 2 m/s 747 mmHg 50%
18:00 +15°C° 0 mm 2 m/s 747 mmHg 54%
19:00 +13°C° 0 mm 2 m/s 747 mmHg 59%
20:00 +12°C° 0 mm 2 m/s 747 mmHg 60%
21:00 +12°C° 0 mm 2 m/s 747 mmHg 61%
22:00 +12°C° 0 mm 2 m/s 747 mmHg 62%
23:00 +10°C° 0 mm 2 m/s 747 mmHg 65%

Mâine, 20 Septembrie, Duminică

Timp Temperatura Precipitaţii Vânt Presiune Umiditate
00:00 +10°C° 0 mm 2 m/s 747 mmHg 67%
01:00 +9°C° 0 mm 2 m/s 747 mmHg 69%
02:00 +9°C° 0 mm 2 m/s 747 mmHg 71%
03:00 +9°C° 0 mm 2 m/s 747 mmHg 73%
04:00 +9°C° 0 mm 2 m/s 746 mmHg 75%
05:00 +9°C° 0 mm 3 m/s 746 mmHg 73%
06:00 +10°C° 0 mm 3 m/s 747 mmHg 71%
07:00 +11°C° 0 mm 3 m/s 747 mmHg 69%
08:00 +12°C° 0 mm 4 m/s 747 mmHg 65%
09:00 +14°C° 0 mm 4 m/s 747 mmHg 60%
10:00 +17°C° 0 mm 4 m/s 747 mmHg 56%
11:00 +18°C° 0 mm 4 m/s 746 mmHg 54%
12:00 +19°C° 0 mm 4 m/s 746 mmHg 51%
13:00 +20°C° 0 mm 4 m/s 746 mmHg 49%
14:00 +20°C° 0 mm 4 m/s 746 mmHg 51%
15:00 +20°C° 0 mm 4 m/s 745 mmHg 53%
16:00 +20°C° 0 mm 3 m/s 745 mmHg 55%
17:00 +18°C° 0 mm 3 m/s 745 mmHg 60%
18:00 +17°C° 0 mm 3 m/s 745 mmHg 66%
19:00 +14°C° 0 mm 3 m/s 745 mmHg 71%
20:00 +13°C° 0 mm 3 m/s 745 mmHg 74%
21:00 +14°C° 0 mm 2 m/s 745 mmHg 76%
22:00 +13°C° 0 mm 2 m/s 745 mmHg 79%
23:00 +13°C° 0 mm 2 m/s 745 mmHg 81%

Poimâine, 21 Septembrie, Luni

Timp Temperatura Precipitaţii Vânt Presiune Umiditate
00:00 +12°C° 0 mm 1 m/s 745 mmHg 83%
01:00 +12°C° 0 mm 1 m/s 745 mmHg 85%
02:00 +12°C° 0 mm 1 m/s 745 mmHg 85%
03:00 +11°C° 0 mm 1 m/s 745 mmHg 84%
04:00 +11°C° 0 mm 1 m/s 745 mmHg 84%
05:00 +11°C° 0 mm 0 m/s 745 mmHg 80%
06:00 +12°C° 0 mm 0 m/s 745 mmHg 76%
07:00 +13°C° 0 mm 0 m/s 745 mmHg 72%
08:00 +15°C° 0 mm 0 m/s 745 mmHg 65%
09:00 +18°C° 0 mm 0 m/s 745 mmHg 57%
10:00 +22°C° 0 mm 1 m/s 745 mmHg 50%
11:00 +23°C° 0 mm 1 m/s 745 mmHg 46%
12:00 +25°C° 0 mm 1 m/s 745 mmHg 42%
13:00 +24°C° 0 mm 0 m/s 745 mmHg 38%
14:00 +26°C° 0 mm 1 m/s 745 mmHg 40%
15:00 +26°C° 0 mm 1 m/s 745 mmHg 42%
16:00 +25°C° 0 mm 1 m/s 744 mmHg 45%
17:00 +23°C° 0 mm 1 m/s 744 mmHg 48%
18:00 +21°C° 0 mm 1 m/s 744 mmHg 52%
19:00 +18°C° 0 mm 2 m/s 744 mmHg 56%
20:00 +17°C° 0 mm 2 m/s 744 mmHg 58%
21:00 +18°C° 0 mm 1 m/s 744 mmHg 60%
22:00 +16°C° 0 mm 1 m/s 744 mmHg 62%
23:00 +16°C° 0 mm 1 m/s 744 mmHg 64%

22 Septembrie, Marţi

Timp Temperatura Precipitaţii Vânt Presiune Umiditate
00:00 +15°C° 0 mm 1 m/s 744 mmHg 65%
01:00 +15°C° 0 mm 1 m/s 744 mmHg 67%
02:00 +15°C° 0 mm 1 m/s 744 mmHg 68%
03:00 +14°C° 0 mm 1 m/s 743 mmHg 69%
04:00 +14°C° 0 mm 1 m/s 743 mmHg 71%
05:00 +15°C° 0 mm 1 m/s 743 mmHg 69%
06:00 +16°C° 0 mm 1 m/s 743 mmHg 67%
07:00 +16°C° 0 mm 1 m/s 743 mmHg 65%
08:00 +19°C° 0 mm 2 m/s 743 mmHg 59%
09:00 +21°C° 0 mm 2 m/s 743 mmHg 52%
10:00 +24°C° 0 mm 2 m/s 743 mmHg 45%
11:00 +25°C° 0 mm 2 m/s 743 mmHg 42%
12:00 +26°C° 0 mm 2 m/s 743 mmHg 39%
13:00 +27°C° 0 mm 2 m/s 742 mmHg 36%
14:00 +27°C° 0 mm 2 m/s 742 mmHg 39%
15:00 +27°C° 0 mm 1 m/s 741 mmHg 41%
16:00 +27°C° 0 mm 1 m/s 741 mmHg 43%
17:00 +25°C° 0 mm 1 m/s 741 mmHg 47%
18:00 +22°C° 0 mm 1 m/s 741 mmHg 51%
19:00 +19°C° 0 mm 2 m/s 741 mmHg 55%
20:00 +20°C° 0 mm 1 m/s 741 mmHg 57%
21:00 +19°C° 0 mm 1 m/s 740 mmHg 59%
22:00 +18°C° 0 mm 1 m/s 740 mmHg 61%
23:00 +18°C° 0 mm 1 m/s 740 mmHg 62%

23 Septembrie, Miercuri

Timp Temperatura Precipitaţii Vânt Presiune Umiditate
00:00 +16°C° 0 mm 1 m/s 740 mmHg 62%
01:00 +16°C° 0 mm 1 m/s 739 mmHg 62%
02:00 +16°C° 0 mm 1 m/s 739 mmHg 63%
03:00 +16°C° 0 mm 2 m/s 739 mmHg 63%
04:00 +15°C° 0 mm 2 m/s 738 mmHg 63%
05:00 +16°C° 0 mm 2 m/s 738 mmHg 62%
06:00 +17°C° 0 mm 2 m/s 738 mmHg 61%
07:00 +17°C° 0 mm 2 m/s 738 mmHg 61%
08:00 +20°C° 0 mm 2 m/s 738 mmHg 55%
09:00 +23°C° 0 mm 2 m/s 738 mmHg 49%
10:00 +25°C° 0 mm 3 m/s 738 mmHg 44%
11:00 +26°C° 0 mm 3 m/s 737 mmHg 42%
12:00 +27°C° 0 mm 3 m/s 737 mmHg 40%
13:00 +28°C° 0 mm 4 m/s 737 mmHg 38%
14:00 +28°C° 0 mm 3 m/s 737 mmHg 43%
15:00 +27°C° 0 mm 3 m/s 736 mmHg 47%
16:00 +26°C° 0 mm 3 m/s 736 mmHg 51%
17:00 +24°C° 0.1 mm 2 m/s 736 mmHg 56%
18:00 +21°C° 0.1 mm 2 m/s 736 mmHg 61%
19:00 +20°C° 0.1 mm 2 m/s 736 mmHg 66%
20:00 +19°C° 0.2 mm 2 m/s 736 mmHg 70%
21:00 +18°C° 0.2 mm 2 m/s 736 mmHg 73%
22:00 +18°C° 0.2 mm 2 m/s 736 mmHg 76%
23:00 +18°C° 0.2 mm 2 m/s 736 mmHg 76%

24 Septembrie, Joi

Timp Temperatura Precipitaţii Vânt Presiune Umiditate
00:00 +18°C° 0.2 mm 2 m/s 736 mmHg 77%
01:00 +18°C° 0.2 mm 2 m/s 736 mmHg 77%
02:00 +19°C° 0.2 mm 1 m/s 736 mmHg 79%
03:00 +18°C° 0.2 mm 1 m/s 736 mmHg 81%
04:00 +18°C° 0.2 mm 1 m/s 736 mmHg 84%
05:00 +18°C° 0 mm 1 m/s 736 mmHg 84%
06:00 +18°C° 0 mm 2 m/s 736 mmHg 84%
07:00 +18°C° 0 mm 2 m/s 736 mmHg 84%
08:00 +19°C° 0 mm 2 m/s 736 mmHg 79%
09:00 +20°C° 0 mm 2 m/s 737 mmHg 74%
10:00 +21°C° 0 mm 2 m/s 737 mmHg 69%
11:00 +23°C° 0.1 mm 2 m/s 737 mmHg 66%
12:00 +24°C° 0.1 mm 1 m/s 737 mmHg 62%
13:00 +24°C° 0.1 mm 1 m/s 737 mmHg 59%
14:00 +24°C° 0.1 mm 1 m/s 736 mmHg 59%
15:00 +24°C° 0.1 mm 1 m/s 736 mmHg 60%
16:00 +24°C° 0.1 mm 1 m/s 736 mmHg 61%
17:00 +22°C° 0.1 mm 1 m/s 736 mmHg 66%
18:00 +21°C° 0.1 mm 1 m/s 736 mmHg 72%
19:00 +18°C° 0.1 mm 2 m/s 736 mmHg 78%
20:00 +18°C° 0 mm 1 m/s 735 mmHg 81%
21:00 +18°C° 0 mm 1 m/s 735 mmHg 84%
22:00 +16°C° 0 mm 1 m/s 735 mmHg 88%
23:00 +16°C° 0 mm 1 m/s 735 mmHg 88%
Arată mai mult